Weather History for LEMO - March, 2013

Change the Weather History Date:

Tuesday, March 26, 2013

  Actual Average Record
Temperature  
Mean Temperature 60 °F -  
Max Temperature 64 °F 71 °F 84 °F (2009)
Min Temperature 57 °F 49 °F 39 °F (2015)
Degree Days  
Heating Degree Days 4    
Growing Degree Days 10 (Base 50)    
Moisture  
Dew Point 58 °F    
Average Humidity 93    
Maximum Humidity 100    
Minimum Humidity 77    
Precipitation  
Precipitation 0.00 in - - ()
Sea Level Pressure  
Sea Level Pressure 29.88 in    
Wind  
Wind Speed 11 mph ()    
Max Wind Speed 17 mph    
Max Gust Speed -    
Visibility 5.7 miles    
Events Rain    
Averages and records for this station are not official NWS values.
T = Trace of Precipitation, MM = Missing Value Source: Averaged Metar Reports

Daily Weather History Graph

Daily Weather History Graph

Search for Another Location

Airport or City:

Trip Planner

Search our weather history database for the weather conditions in past years. The results will help you decide how hot, cold, wet, or windy it might be!

Date:

Astronomy

Mar. 26, 2013 Rise Set
Actual Time 7:17 AM CET 7:39 PM CET
Civil Twilight 6:50 AM CET 8:05 PM CET
Nautical Twilight 6:20 AM CET 8:36 PM CET
Astronomical Twilight 5:49 AM CET 9:07 PM CET
Moon 7:01 PM CET (3/26) 6:24 AM CET (3/26)
Length of Visible Light 13h 14m
Length of Day
12h 22m
Waxing Gibbous, 99% of the Moon is Illuminated
Mar 26
Waxing Gibbous
Mar 27
Full
Apr 3
Last Quarter
Apr 10
New
Apr 18
First Quarter

Hourly Weather History & Observations

Time (CET) Temp. Dew Point Humidity Pressure Visibility Wind Dir Wind Speed Gust Speed Precip Events Conditions
12:00 AM 57.2 °F 57.2 °F 100% 30.01 in 6.2 mi SSW 9.2 mph - N/A   Mostly Cloudy
1:00 AM 57.2 °F 57.2 °F 100% 30.01 in 6.2 mi SSW 9.2 mph - N/A   Mostly Cloudy
2:00 AM 57.2 °F 57.2 °F 100% 29.98 in 6.2 mi SSW 9.2 mph - N/A   Mostly Cloudy
3:00 AM 57.2 °F 57.2 °F 100% 29.98 in 6.2 mi SSW 9.2 mph - N/A   Mostly Cloudy
4:00 AM 57.2 °F 57.2 °F 100% 29.98 in 6.2 mi South 10.4 mph - N/A   Mostly Cloudy
5:00 AM 57.2 °F 57.2 °F 100% 29.92 in 6.2 mi South 10.4 mph - N/A   Mostly Cloudy
6:00 AM 57.2 °F 57.2 °F 100% 29.92 in 6.2 mi South 10.4 mph - N/A   Mostly Cloudy
7:00 AM 59.0 °F 57.2 °F 94% 29.92 in 6.2 mi South 10.4 mph - N/A   Mostly Cloudy
8:00 AM 57.2 °F 57.2 °F 100% 29.92 in 5.0 mi South 10.4 mph - N/A   Mostly Cloudy
9:00 AM 59.0 °F 59.0 °F 100% 29.92 in 5.0 mi SW 11.5 mph - N/A   Mostly Cloudy
10:00 AM 60.8 °F 59.0 °F 94% 29.92 in 6.2 mi SW 12.7 mph - N/A   Mostly Cloudy
10:20 AM 60.8 °F 59.0 °F 94% 29.92 in 6.2 mi WSW 13.8 mph - N/A   Mostly Cloudy
11:00 AM 62.6 °F 59.0 °F 88% 29.89 in 6.2 mi WSW 12.7 mph - N/A   Mostly Cloudy
12:00 PM 64.4 °F 57.2 °F 77% 29.89 in 6.2 mi WSW 12.7 mph - N/A   Mostly Cloudy
1:00 PM 62.6 °F 59.0 °F 88% 29.89 in 6.2 mi SW 16.1 mph - N/A Rain Light Rain
2:00 PM 62.6 °F 59.0 °F 88% 29.89 in 5.6 mi WSW 16.1 mph - N/A Rain Light Rain
3:00 PM 64.4 °F 57.2 °F 77% 29.86 in 5.6 mi WSW 16.1 mph - N/A Rain Light Rain
4:00 PM 64.4 °F 59.0 °F 83% 29.83 in 4.3 mi WSW 15.0 mph - N/A   Mostly Cloudy
5:00 PM 62.6 °F 57.2 °F 82% 29.80 in 6.2 mi WSW 17.3 mph - N/A   Mostly Cloudy
6:00 PM 62.6 °F 57.2 °F 82% 29.80 in 6.2 mi WSW 16.1 mph - N/A   Mostly Cloudy
7:00 PM 60.8 °F 57.2 °F 88% 29.80 in 6.2 mi WSW 16.1 mph - N/A   Scattered Clouds
8:00 PM 59.0 °F 57.2 °F 94% 29.80 in 6.2 mi SW 11.5 mph - N/A   Mostly Cloudy
9:00 PM 59.0 °F 57.2 °F 94% 29.80 in 6.2 mi SW 15.0 mph - N/A   Mostly Cloudy
10:00 PM 59.0 °F 59.0 °F 100% 29.80 in 4.3 mi SW 13.8 mph - N/A Rain Light Rain
11:00 PM 59.0 °F 57.2 °F 94% 29.77 in 2.5 mi SW 15.0 mph - N/A Rain Light Rain
11:20 PM 59.0 °F 59.0 °F 100% 29.77 in 4.3 mi SW 16.1 mph - N/A   Mostly Cloudy